owner,sensor,date,latitude,longitude,vertical_datum,wind_speed,wind_to_direction,wind_speed_of_gust,qcFlag 
WAVCIS,ioos:station:WAVCIS:CSI03:3,2016-12-01T00:00:00Z,29.4412,-92.0613,10.0,6.497,105.0,,'11111222,11111222,99999999' 
WAVCIS,ioos:station:WAVCIS:CSI03:3,2016-12-01T01:00:00Z,29.4412,-92.0613,10.0,6.963,107.0,,'11111222,11111222,99999999' 
WAVCIS,ioos:station:WAVCIS:CSI03:3,2016-12-01T02:00:00Z,29.4412,-92.0613,10.0,6.586,99.0,,'11111222,11111222,99999999' 
WAVCIS,ioos:station:WAVCIS:CSI03:3,2016-12-01T03:00:00Z,29.4412,-92.0613,10.0,5.412,99.0,,'11111222,11111222,99999999' 
WAVCIS,ioos:station:WAVCIS:CSI03:3,2016-12-01T04:00:00Z,29.4412,-92.0613,10.0,4.896,106.0,,'11111222,11111222,99999999' 
WAVCIS,ioos:station:WAVCIS:CSI03:3,2016-12-01T05:00:00Z,29.4412,-92.0613,10.0,4.761,104.0,,'11111222,11111222,99999999' 
WAVCIS,ioos:station:WAVCIS:CSI03:3,2016-12-01T06:00:00Z,29.4412,-92.0613,10.0,3.775,92.0,,'11111222,11111222,99999999' 
WAVCIS,ioos:station:WAVCIS:CSI03:3,2016-12-01T07:00:00Z,29.4412,-92.0613,10.0,3.766,87.0,,'11111222,11111222,99999999' 
WAVCIS,ioos:station:WAVCIS:CSI03:3,2016-12-01T08:00:00Z,29.4412,-92.0613,10.0,4.751,98.0,,'11111222,11111222,99999999' 
WAVCIS,ioos:station:WAVCIS:CSI03:3,2016-12-01T09:00:00Z,29.4412,-92.0613,10.0,6.44,98.0,,'11111222,11111222,99999999' 
WAVCIS,ioos:station:WAVCIS:CSI03:3,2016-12-01T10:00:00Z,29.4412,-92.0613,10.0,6.589,122.0,,'11111222,11111222,99999999' 
WAVCIS,ioos:station:WAVCIS:CSI03:3,2016-12-01T11:00:00Z,29.4412,-92.0613,10.0,9.52,134.0,,'11111222,11111222,99999999' 
WAVCIS,ioos:station:WAVCIS:CSI03:3,2016-12-01T12:00:00Z,29.4412,-92.0613,10.0,10.29,136.0,,'11111222,11111222,99999999' 
WAVCIS,ioos:station:WAVCIS:CSI03:3,2016-12-01T13:00:00Z,29.4412,-92.0613,10.0,9.73,141.0,,'11111222,11111222,99999999' 
WAVCIS,ioos:station:WAVCIS:CSI03:3,2016-12-01T14:00:00Z,29.4412,-92.0613,10.0,9.6,144.0,,'11111222,11111222,99999999' 
WAVCIS,ioos:station:WAVCIS:CSI03:3,2016-12-01T15:00:00Z,29.4412,-92.0613,10.0,9.55,151.0,,'11111222,11111222,99999999' 
WAVCIS,ioos:station:WAVCIS:CSI03:3,2016-12-01T16:00:00Z,29.4412,-92.0613,10.0,9.16,149.0,,'11111222,11111222,99999999' 
WAVCIS,ioos:station:WAVCIS:CSI03:3,2016-12-01T17:00:00Z,29.4412,-92.0613,10.0,7.8,151.0,,'11111222,11111222,99999999' 
WAVCIS,ioos:station:WAVCIS:CSI03:3,2016-12-01T18:00:00Z,29.4412,-92.0613,10.0,5.8,161.0,,'11111222,11111222,99999999' 
WAVCIS,ioos:station:WAVCIS:CSI03:3,2016-12-01T19:00:00Z,29.4412,-92.0613,10.0,5.102,172.0,,'11111222,11111222,99999999' 
WAVCIS,ioos:station:WAVCIS:CSI03:3,2016-12-01T20:00:00Z,29.4412,-92.0613,10.0,4.72,169.0,,'11111222,11111222,99999999' 
WAVCIS,ioos:station:WAVCIS:CSI03:3,2016-12-01T21:00:00Z,29.4412,-92.0613,10.0,5.416,160.0,,'11111222,11111222,99999999' 
WAVCIS,ioos:station:WAVCIS:CSI03:3,2016-12-01T22:00:00Z,29.4412,-92.0613,10.0,5.497,159.0,,'11111222,11111222,99999999' 
WAVCIS,ioos:station:WAVCIS:CSI03:3,2016-12-01T23:00:00Z,29.4412,-92.0613,10.0,5.054,169.0,,'11111222,11111222,99999999' 
WAVCIS,ioos:station:WAVCIS:CSI03:3,2016-12-02T00:00:00Z,29.4412,-92.0613,10.0,5.494,167.0,,'11111222,11111222,99999999' 
WAVCIS,ioos:station:WAVCIS:CSI03:3,2016-12-02T01:00:00Z,29.4412,-92.0613,10.0,6.218,187.0,,'11111222,11111222,99999999' 
WAVCIS,ioos:station:WAVCIS:CSI03:3,2016-12-02T02:00:00Z,29.4412,-92.0613,10.0,5.742,201.0,,'11111222,11111222,99999999' 
WAVCIS,ioos:station:WAVCIS:CSI03:3,2016-12-02T03:00:00Z,29.4412,-92.0613,10.0,4.727,201.0,,'11111222,11111222,99999999' 
WAVCIS,ioos:station:WAVCIS:CSI03:3,2016-12-02T04:00:00Z,29.4412,-92.0613,10.0,5.161,201.0,,'11111222,11111222,99999999' 
WAVCIS,ioos:station:WAVCIS:CSI03:3,2016-12-02T05:00:00Z,29.4412,-92.0613,10.0,5.864,200.0,,'11111222,11111222,99999999' 
WAVCIS,ioos:station:WAVCIS:CSI03:3,2016-12-02T06:00:00Z,29.4412,-92.0613,10.0,6.404,182.0,,'11111222,11111222,99999999' 
WAVCIS,ioos:station:WAVCIS:CSI03:3,2016-12-02T07:00:00Z,29.4412,-92.0613,10.0,7.11,180.0,,'11111222,11111222,99999999' 
WAVCIS,ioos:station:WAVCIS:CSI03:3,2016-12-02T08:00:00Z,29.4412,-92.0613,10.0,7.91,192.0,,'11111222,11111222,99999999' 
WAVCIS,ioos:station:WAVCIS:CSI03:3,2016-12-02T09:00:00Z,29.4412,-92.0613,10.0,7.51,183.0,,'11111222,11111222,99999999' 
WAVCIS,ioos:station:WAVCIS:CSI03:3,2016-12-02T10:00:00Z,29.4412,-92.0613,10.0,7.58,165.0,,'11111222,11111222,99999999' 
WAVCIS,ioos:station:WAVCIS:CSI03:3,2016-12-02T11:00:00Z,29.4412,-92.0613,10.0,7.54,180.0,,'11111222,11111222,99999999' 
WAVCIS,ioos:station:WAVCIS:CSI03:3,2016-12-02T12:00:00Z,29.4412,-92.0613,10.0,8.22,173.0,,'11111222,11111222,99999999' 
WAVCIS,ioos:station:WAVCIS:CSI03:3,2016-12-02T13:00:00Z,29.4412,-92.0613,10.0,9.04,176.0,,'11111222,11111222,99999999' 
WAVCIS,ioos:station:WAVCIS:CSI03:3,2016-12-02T14:00:00Z,29.4412,-92.0613,10.0,9.42,184.0,,'11111222,11111222,99999999' 
WAVCIS,ioos:station:WAVCIS:CSI03:3,2016-12-02T15:00:00Z,29.4412,-92.0613,10.0,9.94,183.0,,'11111222,11111222,99999999' 
WAVCIS,ioos:station:WAVCIS:CSI03:3,2016-12-02T16:00:00Z,29.4412,-92.0613,10.0,10.98,191.0,,'11111222,11111222,99999999' 
WAVCIS,ioos:station:WAVCIS:CSI03:3,2016-12-02T17:00:00Z,29.4412,-92.0613,10.0,10.8,193.0,,'11111222,11111222,99999999' 
WAVCIS,ioos:station:WAVCIS:CSI03:3,2016-12-02T18:00:00Z,29.4412,-92.0613,10.0,10.23,192.0,,'11111222,11111222,99999999' 
WAVCIS,ioos:station:WAVCIS:CSI03:3,2016-12-02T19:00:00Z,29.4412,-92.0613,10.0,10.25,192.0,,'11111222,11111222,99999999' 
WAVCIS,ioos:station:WAVCIS:CSI03:3,2016-12-02T20:00:00Z,29.4412,-92.0613,10.0,10.55,182.0,,'11111222,11111222,99999999' 
WAVCIS,ioos:station:WAVCIS:CSI03:3,2016-12-02T21:00:00Z,29.4412,-92.0613,10.0,9.41,179.0,,'11111222,11111222,99999999' 
WAVCIS,ioos:station:WAVCIS:CSI03:3,2016-12-02T22:00:00Z,29.4412,-92.0613,10.0,7.64,149.0,,'11111222,11111222,99999999' 
WAVCIS,ioos:station:WAVCIS:CSI03:3,2016-12-02T23:00:00Z,29.4412,-92.0613,10.0,11.04,165.0,,'11111222,11111222,99999999' 
WAVCIS,ioos:station:WAVCIS:CSI03:3,2016-12-03T00:00:00Z,29.4412,-92.0613,10.0,11.48,154.0,,'11111222,11111222,99999999' 
WAVCIS,ioos:station:WAVCIS:CSI03:3,2016-12-03T01:00:00Z,29.4412,-92.0613,10.0,13.7,159.0,,'11111222,11111222,99999999' 
WAVCIS,ioos:station:WAVCIS:CSI03:3,2016-12-03T02:00:00Z,29.4412,-92.0613,10.0,12.5,176.0,,'11111222,11111222,99999999' 
WAVCIS,ioos:station:WAVCIS:CSI03:3,2016-12-03T03:00:00Z,29.4412,-92.0613,10.0,12.24,175.0,,'11111222,11111222,99999999' 
WAVCIS,ioos:station:WAVCIS:CSI03:3,2016-12-03T04:00:00Z,29.4412,-92.0613,10.0,14.34,193.0,,'11111222,11111222,99999999' 
WAVCIS,ioos:station:WAVCIS:CSI03:3,2016-12-03T05:00:00Z,29.4412,-92.0613,10.0,13.16,191.0,,'11111222,11111222,99999999' 
WAVCIS,ioos:station:WAVCIS:CSI03:3,2016-12-03T06:00:00Z,29.4412,-92.0613,10.0,13.61,190.0,,'11111222,11111222,99999999' 
WAVCIS,ioos:station:WAVCIS:CSI03:3,2016-12-03T07:00:00Z,29.4412,-92.0613,10.0,14.54,192.0,,'11111222,11111222,99999999' 
WAVCIS,ioos:station:WAVCIS:CSI03:3,2016-12-03T08:00:00Z,29.4412,-92.0613,10.0,15.06,193.0,,'11111222,11111222,99999999' 
WAVCIS,ioos:station:WAVCIS:CSI03:3,2016-12-03T09:00:00Z,29.4412,-92.0613,10.0,14.62,193.0,,'11111222,11111222,99999999' 
WAVCIS,ioos:station:WAVCIS:CSI03:3,2016-12-03T10:00:00Z,29.4412,-92.0613,10.0,13.29,184.0,,'11111222,11111222,99999999' 
WAVCIS,ioos:station:WAVCIS:CSI03:3,2016-12-03T11:00:00Z,29.4412,-92.0613,10.0,12.87,190.0,,'11111222,11111222,99999999' 
WAVCIS,ioos:station:WAVCIS:CSI03:3,2016-12-03T12:00:00Z,29.4412,-92.0613,10.0,11.58,178.0,,'11111222,11111222,99999999' 
WAVCIS,ioos:station:WAVCIS:CSI03:3,2016-12-03T13:00:00Z,29.4412,-92.0613,10.0,11.47,180.0,,'11111222,11111222,99999999' 
WAVCIS,ioos:station:WAVCIS:CSI03:3,2016-12-03T14:00:00Z,29.4412,-92.0613,10.0,12.2,187.0,,'11111222,11111222,99999999' 
WAVCIS,ioos:station:WAVCIS:CSI03:3,2016-12-03T15:00:00Z,29.4412,-92.0613,10.0,13.06,189.0,,'11111222,11111222,99999999' 
WAVCIS,ioos:station:WAVCIS:CSI03:3,2016-12-03T16:00:00Z,29.4412,-92.0613,10.0,11.82,189.0,,'11111222,11111222,99999999' 
WAVCIS,ioos:station:WAVCIS:CSI03:3,2016-12-03T17:00:00Z,29.4412,-92.0613,10.0,14.63,200.0,,'11111222,11111222,99999999' 
WAVCIS,ioos:station:WAVCIS:CSI03:3,2016-12-03T18:00:00Z,29.4412,-92.0613,10.0,13.49,209.0,,'11111222,11111222,99999999' 
WAVCIS,ioos:station:WAVCIS:CSI03:3,2016-12-03T19:00:00Z,29.4412,-92.0613,10.0,13.67,204.0,,'11111222,11111222,99999999' 
WAVCIS,ioos:station:WAVCIS:CSI03:3,2016-12-03T20:00:00Z,29.4412,-92.0613,10.0,11.82,206.0,,'11111222,11111222,99999999' 
WAVCIS,ioos:station:WAVCIS:CSI03:3,2016-12-03T21:00:00Z,29.4412,-92.0613,10.0,10.19,203.0,,'11111222,11111222,99999999' 
WAVCIS,ioos:station:WAVCIS:CSI03:3,2016-12-03T22:00:00Z,29.4412,-92.0613,10.0,10.07,201.0,,'11111222,11111222,99999999' 
WAVCIS,ioos:station:WAVCIS:CSI03:3,2016-12-03T23:00:00Z,29.4412,-92.0613,10.0,8.84,223.0,,'11111222,11111222,99999999' 
WAVCIS,ioos:station:WAVCIS:CSI03:3,2016-12-04T00:00:00Z,29.4412,-92.0613,10.0,10.53,194.0,,'11111222,11111222,99999999' 
WAVCIS,ioos:station:WAVCIS:CSI03:3,2016-12-04T01:00:00Z,29.4412,-92.0613,10.0,9.71,200.0,,'11111222,11111222,99999999' 
WAVCIS,ioos:station:WAVCIS:CSI03:3,2016-12-04T02:00:00Z,29.4412,-92.0613,10.0,10.94,204.0,,'11111222,11111222,99999999' 
WAVCIS,ioos:station:WAVCIS:CSI03:3,2016-12-04T03:00:00Z,29.4412,-92.0613,10.0,9.65,209.0,,'11111222,11111222,99999999' 
WAVCIS,ioos:station:WAVCIS:CSI03:3,2016-12-04T04:00:00Z,29.4412,-92.0613,10.0,10.4,205.0,,'11111222,11111222,99999999' 
WAVCIS,ioos:station:WAVCIS:CSI03:3,2016-12-04T05:00:00Z,29.4412,-92.0613,10.0,8.16,208.0,,'11111222,11111222,99999999' 
WAVCIS,ioos:station:WAVCIS:CSI03:3,2016-12-04T06:00:00Z,29.4412,-92.0613,10.0,7.97,212.0,,'11111222,11111222,99999999' 
WAVCIS,ioos:station:WAVCIS:CSI03:3,2016-12-04T07:00:00Z,29.4412,-92.0613,10.0,5.912,224.0,,'11111222,11111222,99999999' 
WAVCIS,ioos:station:WAVCIS:CSI03:3,2016-12-04T08:00:00Z,29.4412,-92.0613,10.0,2.471,93.0,,'11111222,11111222,99999999' 
WAVCIS,ioos:station:WAVCIS:CSI03:3,2016-12-04T09:00:00Z,29.4412,-92.0613,10.0,1.81,82.0,,'11111222,11111222,99999999' 
WAVCIS,ioos:station:WAVCIS:CSI03:3,2016-12-04T10:00:00Z,29.4412,-92.0613,10.0,2.364,341.0,,'11111222,11111222,99999999' 
WAVCIS,ioos:station:WAVCIS:CSI03:3,2016-12-04T11:00:00Z,29.4412,-92.0613,10.0,2.393,58.0,,'11111222,11111222,99999999' 
WAVCIS,ioos:station:WAVCIS:CSI03:3,2016-12-04T12:00:00Z,29.4412,-92.0613,10.0,0.851,185.0,,'11111222,11111222,99999999' 
WAVCIS,ioos:station:WAVCIS:CSI03:3,2016-12-04T13:00:00Z,29.4412,-92.0613,10.0,4.526,87.0,,'11111222,11111222,99999999' 
WAVCIS,ioos:station:WAVCIS:CSI03:3,2016-12-04T14:00:00Z,29.4412,-92.0613,10.0,5.767,180.0,,'11111222,11111222,99999999' 
WAVCIS,ioos:station:WAVCIS:CSI03:3,2016-12-04T15:00:00Z,29.4412,-92.0613,10.0,2.552,270.0,,'11111222,11111222,99999999' 
WAVCIS,ioos:station:WAVCIS:CSI03:3,2016-12-04T16:00:00Z,29.4412,-92.0613,10.0,4.726,197.0,,'11111222,11111222,99999999' 
WAVCIS,ioos:station:WAVCIS:CSI03:3,2016-12-04T17:00:00Z,29.4412,-92.0613,10.0,8.41,75.0,,'11111222,11111222,99999999' 
WAVCIS,ioos:station:WAVCIS:CSI03:3,2016-12-04T18:00:00Z,29.4412,-92.0613,10.0,7.51,86.0,,'11111222,11111222,99999999' 
WAVCIS,ioos:station:WAVCIS:CSI03:3,2016-12-04T19:00:00Z,29.4412,-92.0613,10.0,8.02,102.0,,'11111222,11111222,99999999' 
WAVCIS,ioos:station:WAVCIS:CSI03:3,2016-12-04T20:00:00Z,29.4412,-92.0613,10.0,7.05,106.0,,'11111222,11111222,99999999' 
WAVCIS,ioos:station:WAVCIS:CSI03:3,2016-12-04T21:00:00Z,29.4412,-92.0613,10.0,8.84,92.0,,'11111222,11111222,99999999' 
WAVCIS,ioos:station:WAVCIS:CSI03:3,2016-12-04T22:00:00Z,29.4412,-92.0613,10.0,6.285,114.0,,'11111222,11111222,99999999' 
WAVCIS,ioos:station:WAVCIS:CSI03:3,2016-12-04T23:00:00Z,29.4412,-92.0613,10.0,5.516,108.0,,'11111222,11111222,99999999' 
WAVCIS,ioos:station:WAVCIS:CSI03:3,2016-12-05T00:00:00Z,29.4412,-92.0613,10.0,7.57,156.0,,'11111222,11111222,99999999' 
WAVCIS,ioos:station:WAVCIS:CSI03:3,2016-12-05T01:00:00Z,29.4412,-92.0613,10.0,8.37,178.0,,'11111222,11111222,99999999' 
WAVCIS,ioos:station:WAVCIS:CSI03:3,2016-12-05T02:00:00Z,29.4412,-92.0613,10.0,7.88,200.0,,'11111222,11111222,99999999' 
WAVCIS,ioos:station:WAVCIS:CSI03:3,2016-12-05T03:00:00Z,29.4412,-92.0613,10.0,8.77,202.0,,'11111222,11111222,99999999' 
WAVCIS,ioos:station:WAVCIS:CSI03:3,2016-12-05T04:00:00Z,29.4412,-92.0613,10.0,9.19,187.0,,'11111222,11111222,99999999' 
WAVCIS,ioos:station:WAVCIS:CSI03:3,2016-12-05T05:00:00Z,29.4412,-92.0613,10.0,5.438,127.0,,'11111222,11111222,99999999' 
WAVCIS,ioos:station:WAVCIS:CSI03:3,2016-12-05T06:00:00Z,29.4412,-92.0613,10.0,6.854,99.0,,'11111222,11111222,99999999' 
WAVCIS,ioos:station:WAVCIS:CSI03:3,2016-12-05T07:00:00Z,29.4412,-92.0613,10.0,6.874,104.0,,'11111222,11111222,99999999' 
WAVCIS,ioos:station:WAVCIS:CSI03:3,2016-12-05T08:00:00Z,29.4412,-92.0613,10.0,7.72,130.0,,'11111222,11111222,99999999' 
WAVCIS,ioos:station:WAVCIS:CSI03:3,2016-12-05T09:00:00Z,29.4412,-92.0613,10.0,7.82,142.0,,'11111222,11111222,99999999' 
WAVCIS,ioos:station:WAVCIS:CSI03:3,2016-12-05T10:00:00Z,29.4412,-92.0613,10.0,9.11,149.0,,'11111222,11111222,99999999' 
WAVCIS,ioos:station:WAVCIS:CSI03:3,2016-12-05T11:00:00Z,29.4412,-92.0613,10.0,7.55,140.0,,'11111222,11111222,99999999' 
WAVCIS,ioos:station:WAVCIS:CSI03:3,2016-12-05T12:00:00Z,29.4412,-92.0613,10.0,7.73,135.0,,'11111222,11111222,99999999' 
WAVCIS,ioos:station:WAVCIS:CSI03:3,2016-12-05T13:00:00Z,29.4412,-92.0613,10.0,8.6,151.0,,'11111222,11111222,99999999' 
WAVCIS,ioos:station:WAVCIS:CSI03:3,2016-12-05T14:00:00Z,29.4412,-92.0613,10.0,8.83,146.0,,'11111222,11111222,99999999' 
WAVCIS,ioos:station:WAVCIS:CSI03:3,2016-12-05T15:00:00Z,29.4412,-92.0613,10.0,6.328,121.0,,'11111222,11111222,99999999' 
WAVCIS,ioos:station:WAVCIS:CSI03:3,2016-12-05T16:00:00Z,29.4412,-92.0613,10.0,8.72,77.0,,'11111222,11111222,99999999' 
WAVCIS,ioos:station:WAVCIS:CSI03:3,2016-12-05T17:00:00Z,29.4412,-92.0613,10.0,6.866,133.0,,'11111222,11111222,99999999' 
WAVCIS,ioos:station:WAVCIS:CSI03:3,2016-12-05T18:00:00Z,29.4412,-92.0613,10.0,7.77,162.0,,'11111222,11111222,99999999' 
WAVCIS,ioos:station:WAVCIS:CSI03:3,2016-12-05T19:00:00Z,29.4412,-92.0613,10.0,5.857,138.0,,'11111222,11111222,99999999' 
WAVCIS,ioos:station:WAVCIS:CSI03:3,2016-12-05T20:00:00Z,29.4412,-92.0613,10.0,6.864,185.0,,'11111222,11111222,99999999' 
WAVCIS,ioos:station:WAVCIS:CSI03:3,2016-12-05T21:00:00Z,29.4412,-92.0613,10.0,6.036,184.0,,'11111222,11111222,99999999' 
WAVCIS,ioos:station:WAVCIS:CSI03:3,2016-12-05T22:00:00Z,29.4412,-92.0613,10.0,6.564,206.0,,'11111222,11111222,99999999' 
WAVCIS,ioos:station:WAVCIS:CSI03:3,2016-12-05T23:00:00Z,29.4412,-92.0613,10.0,5.956,206.0,,'11111222,11111222,99999999' 
WAVCIS,ioos:station:WAVCIS:CSI03:3,2016-12-06T00:00:00Z,29.4412,-92.0613,10.0,5.555,219.0,,'11111222,11111222,99999999' 
WAVCIS,ioos:station:WAVCIS:CSI03:3,2016-12-06T01:00:00Z,29.4412,-92.0613,10.0,6.407,242.0,,'11111222,11111222,99999999' 
WAVCIS,ioos:station:WAVCIS:CSI03:3,2016-12-06T02:00:00Z,29.4412,-92.0613,10.0,4.584,316.0,,'11111222,11111222,99999999' 
WAVCIS,ioos:station:WAVCIS:CSI03:3,2016-12-06T03:00:00Z,29.4412,-92.0613,10.0,10.19,27.0,,'11111222,11111222,99999999' 
WAVCIS,ioos:station:WAVCIS:CSI03:3,2016-12-06T04:00:00Z,29.4412,-92.0613,10.0,10.29,23.0,,'11111222,11111222,99999999' 
WAVCIS,ioos:station:WAVCIS:CSI03:3,2016-12-06T05:00:00Z,29.4412,-92.0613,10.0,8.85,18.0,,'11111222,11111222,99999999' 
WAVCIS,ioos:station:WAVCIS:CSI03:3,2016-12-06T06:00:00Z,29.4412,-92.0613,10.0,9.09,18.0,,'11111222,11111222,99999999' 
WAVCIS,ioos:station:WAVCIS:CSI03:3,2016-12-06T07:00:00Z,29.4412,-92.0613,10.0,11.59,19.0,,'11111222,11111222,99999999' 
WAVCIS,ioos:station:WAVCIS:CSI03:3,2016-12-06T08:00:00Z,29.4412,-92.0613,10.0,10.49,26.0,,'11111222,11111222,99999999' 
WAVCIS,ioos:station:WAVCIS:CSI03:3,2016-12-06T09:00:00Z,29.4412,-92.0613,10.0,11.91,24.0,,'11111222,11111222,99999999' 
WAVCIS,ioos:station:WAVCIS:CSI03:3,2016-12-06T10:00:00Z,29.4412,-92.0613,10.0,8.23,45.0,,'11111222,11111222,99999999' 
WAVCIS,ioos:station:WAVCIS:CSI03:3,2016-12-06T11:00:00Z,29.4412,-92.0613,10.0,7.9,48.0,,'11111222,11111222,99999999' 
WAVCIS,ioos:station:WAVCIS:CSI03:3,2016-12-06T12:00:00Z,29.4412,-92.0613,10.0,8.09,50.0,,'11111222,11111222,99999999' 
WAVCIS,ioos:station:WAVCIS:CSI03:3,2016-12-06T13:00:00Z,29.4412,-92.0613,10.0,6.144,51.0,,'11111222,11111222,99999999' 
WAVCIS,ioos:station:WAVCIS:CSI03:3,2016-12-06T14:00:00Z,29.4412,-92.0613,10.0,6.146,55.0,,'11111222,11111222,99999999' 
WAVCIS,ioos:station:WAVCIS:CSI03:3,2016-12-06T15:00:00Z,29.4412,-92.0613,10.0,6.466,59.0,,'11111222,11111222,99999999' 
WAVCIS,ioos:station:WAVCIS:CSI03:3,2016-12-06T16:00:00Z,29.4412,-92.0613,10.0,5.365,58.0,,'11111222,11111222,99999999' 
WAVCIS,ioos:station:WAVCIS:CSI03:3,2016-12-06T17:00:00Z,29.4412,-92.0613,10.0,3.08,58.0,,'11111222,11111222,99999999' 
WAVCIS,ioos:station:WAVCIS:CSI03:3,2016-12-06T18:00:00Z,29.4412,-92.0613,10.0,3.375,65.0,,'11111222,11111222,99999999' 
WAVCIS,ioos:station:WAVCIS:CSI03:3,2016-12-06T19:00:00Z,29.4412,-92.0613,10.0,0.961,64.0,,'11111222,11111222,99999999' 
WAVCIS,ioos:station:WAVCIS:CSI03:3,2016-12-06T20:00:00Z,29.4412,-92.0613,10.0,1.182,281.0,,'11111222,11111222,99999999' 
WAVCIS,ioos:station:WAVCIS:CSI03:3,2016-12-06T21:00:00Z,29.4412,-92.0613,10.0,1.322,280.0,,'11111222,11111222,99999999' 
WAVCIS,ioos:station:WAVCIS:CSI03:3,2016-12-06T22:00:00Z,29.4412,-92.0613,10.0,0.33,278.0,,'11111222,11111222,99999999' 
WAVCIS,ioos:station:WAVCIS:CSI03:3,2016-12-06T23:00:00Z,29.4412,-92.0613,10.0,0.113,280.0,,'11111222,11111222,99999999' 
WAVCIS,ioos:station:WAVCIS:CSI03:3,2016-12-07T00:00:00Z,29.4412,-92.0613,10.0,0.233,279.0,,'11111222,11111222,99999999' 
WAVCIS,ioos:station:WAVCIS:CSI03:3,2016-12-07T01:00:00Z,29.4412,-92.0613,10.0,0.657,250.0,,'11111222,11111222,99999999' 
WAVCIS,ioos:station:WAVCIS:CSI03:3,2016-12-07T02:00:00Z,29.4412,-92.0613,10.0,2.605,233.0,,'11111222,11111222,99999999' 
WAVCIS,ioos:station:WAVCIS:CSI03:3,2016-12-07T03:00:00Z,29.4412,-92.0613,10.0,2.284,232.0,,'11111222,11111222,99999999' 
WAVCIS,ioos:station:WAVCIS:CSI03:3,2016-12-07T04:00:00Z,29.4412,-92.0613,10.0,3.376,229.0,,'11111222,11111222,99999999' 
WAVCIS,ioos:station:WAVCIS:CSI03:3,2016-12-07T05:00:00Z,29.4412,-92.0613,10.0,5.494,185.0,,'11111222,11111222,99999999' 
WAVCIS,ioos:station:WAVCIS:CSI03:3,2016-12-07T06:00:00Z,29.4412,-92.0613,10.0,5.837,170.0,,'11111222,11111222,99999999' 
WAVCIS,ioos:station:WAVCIS:CSI03:3,2016-12-07T07:00:00Z,29.4412,-92.0613,10.0,6.783,151.0,,'11111222,11111222,99999999' 
WAVCIS,ioos:station:WAVCIS:CSI03:3,2016-12-07T08:00:00Z,29.4412,-92.0613,10.0,5.762,177.0,,'11111222,11111222,99999999' 
WAVCIS,ioos:station:WAVCIS:CSI03:3,2016-12-07T09:00:00Z,29.4412,-92.0613,10.0,5.626,174.0,,'11111222,11111222,99999999' 
WAVCIS,ioos:station:WAVCIS:CSI03:3,2016-12-07T10:00:00Z,29.4412,-92.0613,10.0,5.543,192.0,,'11111222,11111222,99999999' 
WAVCIS,ioos:station:WAVCIS:CSI03:3,2016-12-07T11:00:00Z,29.4412,-92.0613,10.0,4.744,176.0,,'11111222,11111222,99999999' 
WAVCIS,ioos:station:WAVCIS:CSI03:3,2016-12-07T12:00:00Z,29.4412,-92.0613,10.0,5.503,169.0,,'11111222,11111222,99999999' 
WAVCIS,ioos:station:WAVCIS:CSI03:3,2016-12-07T13:00:00Z,29.4412,-92.0613,10.0,4.754,159.0,,'11111222,11111222,99999999' 
WAVCIS,ioos:station:WAVCIS:CSI03:3,2016-12-07T14:00:00Z,29.4412,-92.0613,10.0,4.026,160.0,,'11111222,11111222,99999999' 
WAVCIS,ioos:station:WAVCIS:CSI03:3,2016-12-07T15:00:00Z,29.4412,-92.0613,10.0,4.518,181.0,,'11111222,11111222,99999999' 
WAVCIS,ioos:station:WAVCIS:CSI03:3,2016-12-07T16:00:00Z,29.4412,-92.0613,10.0,5.158,194.0,,'11111222,11111222,99999999' 
WAVCIS,ioos:station:WAVCIS:CSI03:3,2016-12-07T17:00:00Z,29.4412,-92.0613,10.0,5.574,172.0,,'11111222,11111222,99999999' 
WAVCIS,ioos:station:WAVCIS:CSI03:3,2016-12-07T18:00:00Z,29.4412,-92.0613,10.0,4.625,186.0,,'11111222,11111222,99999999' 
WAVCIS,ioos:station:WAVCIS:CSI03:3,2016-12-07T19:00:00Z,29.4412,-92.0613,10.0,4.693,194.0,,'11111222,11111222,99999999' 
WAVCIS,ioos:station:WAVCIS:CSI03:3,2016-12-07T20:00:00Z,29.4412,-92.0613,10.0,2.767,206.0,,'11111222,11111222,99999999' 
WAVCIS,ioos:station:WAVCIS:CSI03:3,2016-12-07T21:00:00Z,29.4412,-92.0613,10.0,4.719,159.0,,'11111222,11111222,99999999' 
WAVCIS,ioos:station:WAVCIS:CSI03:3,2016-12-07T22:00:00Z,29.4412,-92.0613,10.0,5.495,170.0,,'11111222,11111222,99999999' 
WAVCIS,ioos:station:WAVCIS:CSI03:3,2016-12-07T23:00:00Z,29.4412,-92.0613,10.0,3.95,155.0,,'11111222,11111222,99999999' 
WAVCIS,ioos:station:WAVCIS:CSI03:3,2016-12-08T00:00:00Z,29.4412,-92.0613,10.0,3.587,131.0,,'11111222,11111222,99999999' 
WAVCIS,ioos:station:WAVCIS:CSI03:3,2016-12-08T01:00:00Z,29.4412,-92.0613,10.0,4.37,148.0,,'11111222,11111222,99999999' 
WAVCIS,ioos:station:WAVCIS:CSI03:3,2016-12-08T02:00:00Z,29.4412,-92.0613,10.0,4.874,149.0,,'11111222,11111222,99999999' 
WAVCIS,ioos:station:WAVCIS:CSI03:3,2016-12-08T03:00:00Z,29.4412,-92.0613,10.0,4.8,148.0,,'11111222,11111222,99999999' 
WAVCIS,ioos:station:WAVCIS:CSI03:3,2016-12-08T04:00:00Z,29.4412,-92.0613,10.0,5.488,134.0,,'11111222,11111222,99999999' 
WAVCIS,ioos:station:WAVCIS:CSI03:3,2016-12-08T05:00:00Z,29.4412,-92.0613,10.0,7.57,174.0,,'11111222,11111222,99999999' 
WAVCIS,ioos:station:WAVCIS:CSI03:3,2016-12-08T06:00:00Z,29.4412,-92.0613,10.0,7.89,196.0,,'11111222,11111222,99999999' 
WAVCIS,ioos:station:WAVCIS:CSI03:3,2016-12-08T07:00:00Z,29.4412,-92.0613,10.0,7.43,176.0,,'11111222,11111222,99999999' 
WAVCIS,ioos:station:WAVCIS:CSI03:3,2016-12-08T08:00:00Z,29.4412,-92.0613,10.0,7.7,161.0,,'11111222,11111222,99999999' 
WAVCIS,ioos:station:WAVCIS:CSI03:3,2016-12-08T09:00:00Z,29.4412,-92.0613,10.0,7.65,137.0,,'11111222,11111222,99999999' 
WAVCIS,ioos:station:WAVCIS:CSI03:3,2016-12-08T10:00:00Z,29.4412,-92.0613,10.0,7.5,117.0,,'11111222,11111222,99999999' 
WAVCIS,ioos:station:WAVCIS:CSI03:3,2016-12-08T11:00:00Z,29.4412,-92.0613,10.0,8.94,127.0,,'11111222,11111222,99999999' 
WAVCIS,ioos:station:WAVCIS:CSI03:3,2016-12-08T12:00:00Z,29.4412,-92.0613,10.0,10.02,129.0,,'11111222,11111222,99999999' 
WAVCIS,ioos:station:WAVCIS:CSI03:3,2016-12-08T13:00:00Z,29.4412,-92.0613,10.0,10.13,132.0,,'11111222,11111222,99999999' 
WAVCIS,ioos:station:WAVCIS:CSI03:3,2016-12-08T14:00:00Z,29.4412,-92.0613,10.0,10.51,135.0,,'11111222,11111222,99999999' 
WAVCIS,ioos:station:WAVCIS:CSI03:3,2016-12-08T15:00:00Z,29.4412,-92.0613,10.0,11.98,138.0,,'11111222,11111222,99999999' 
WAVCIS,ioos:station:WAVCIS:CSI03:3,2016-12-08T16:00:00Z,29.4412,-92.0613,10.0,10.05,129.0,,'11111222,11111222,99999999' 
WAVCIS,ioos:station:WAVCIS:CSI03:3,2016-12-08T17:00:00Z,29.4412,-92.0613,10.0,11.43,133.0,,'11111222,11111222,99999999' 
WAVCIS,ioos:station:WAVCIS:CSI03:3,2016-12-08T18:00:00Z,29.4412,-92.0613,10.0,10.88,131.0,,'11111222,11111222,99999999' 
WAVCIS,ioos:station:WAVCIS:CSI03:3,2016-12-08T19:00:00Z,29.4412,-92.0613,10.0,12.01,134.0,,'11111222,11111222,99999999' 
WAVCIS,ioos:station:WAVCIS:CSI03:3,2016-12-08T20:00:00Z,29.4412,-92.0613,10.0,9.6,129.0,,'11111222,11111222,99999999' 
WAVCIS,ioos:station:WAVCIS:CSI03:3,2016-12-08T21:00:00Z,29.4412,-92.0613,10.0,8.9,127.0,,'11111222,11111222,99999999' 
WAVCIS,ioos:station:WAVCIS:CSI03:3,2016-12-08T22:00:00Z,29.4412,-92.0613,10.0,8.38,123.0,,'11111222,11111222,99999999' 
WAVCIS,ioos:station:WAVCIS:CSI03:3,2016-12-08T23:00:00Z,29.4412,-92.0613,10.0,9.67,124.0,,'11111222,11111222,99999999' 
WAVCIS,ioos:station:WAVCIS:CSI03:3,2016-12-09T00:00:00Z,29.4412,-92.0613,10.0,8.9,125.0,,'11111222,11111222,99999999' 
WAVCIS,ioos:station:WAVCIS:CSI03:3,2016-12-09T01:00:00Z,29.4412,-92.0613,10.0,9.25,118.0,,'11111222,11111222,99999999' 
WAVCIS,ioos:station:WAVCIS:CSI03:3,2016-12-09T02:00:00Z,29.4412,-92.0613,10.0,9.85,124.0,,'11111222,11111222,99999999' 
WAVCIS,ioos:station:WAVCIS:CSI03:3,2016-12-09T03:00:00Z,29.4412,-92.0613,10.0,9.45,124.0,,'11111222,11111222,99999999' 
WAVCIS,ioos:station:WAVCIS:CSI03:3,2016-12-09T04:00:00Z,29.4412,-92.0613,10.0,10.44,131.0,,'11111222,11111222,99999999' 
WAVCIS,ioos:station:WAVCIS:CSI03:3,2016-12-09T05:00:00Z,29.4412,-92.0613,10.0,11.17,134.0,,'11111222,11111222,99999999' 